RH
31 29 27 25 21 18 16 14 12 11 11 10 10 10 10 10 10 9 9 9 8 8 7 6 6 5 4 4 4 4 4 3 3 3 2 2 3 3 3 4 5 5 6 6 6 6 6 6 6 6 7 7 7 7 7 7 7 6 6 6 5 4 4 3 3 2 2 2 3 2 3 4 5 12 22 25 33 45 51 53 53 46 44 52 61 52 28
26 24 21 18 16 14 12 12 11 11 11 11 10 10 10 9 9 8 8 7 6 6 5 5 4 4 4 4 3 3 3 2 2 2 3 3 3 4 5 5 6 6 7 7 7 7 7 8 7 8 8 8 8 8 8 8 8 7 7 6 5 4 3 3 3 3 3 2 3 3 3 5 5 7 10 11 16 22 22 22 26 26 25 26 33 37 29
19 17 16 14 13 13 12 12 12 11 11 10 10 9 8 8 7 6 6 5 5 4 4 4 4 3 3 3 2 2 2 2 3 3 4 5 5 6 6 7 7 7 8 8 8 9 9 9 9 9 9 9 10 9 9 9 9 8 8 7 5 4 3 4 3 3 4 3 4 5 4 4 6 7 8 8 8 10 8 9 14 19 16 11 20 36 34
15 14 14 13 13 13 12 11 11 10 10 9 8 7 6 6 5 5 4 4 4 4 4 3 3 2 2 2 2 3 3 3 4 5 6 6 7 7 8 8 9 9 9 9 9 10 9 10 10 10 11 11 11 11 10 10 10 9 9 7 5 4 3 4 4 4 5 4 4 5 5 5 6 6 7 7 7 9 9 9 16 22 18 9 18 33 29
15 14 13 13 12 12 11 10 10 9 8 7 6 5 5 5 4 4 4 4 3 3 3 2 2 2 2 3 4 4 4 6 6 7 8 8 8 9 9 9 9 10 10 10 11 11 11 12 12 12 12 12 12 12 12 12 12 11 10 7 5 4 4 4 5 4 5 5 4 5 5 6 6 5 6 6 6 8 9 11 15 18 16 10 12 18 15
14 13 13 12 11 11 10 9 8 7 6 5 5 4 4 4 4 4 3 3 2 2 2 2 3 3 4 5 6 6 6 8 8 8 8 8 8 9 8 9 10 11 11 12 12 12 13 14 14 14 14 14 14 14 14 14 13 12 10 7 4 4 4 4 5 5 5 5 5 5 5 6 6 5 6 6 6 7 6 8 10 10 10 10 9 8 8
13 12 12 11 10 9 8 8 7 6 5 5 4 4 4 3 3 3 3 2 2 3 3 4 5 5 6 7 8 8 8 8 8 8 8 8 8 8 8 10 11 12 13 13 14 14 14 15 16 16 16 16 16 16 16 15 15 13 11 7 4 4 5 5 6 6 6 6 6 6 6 6 6 6 6 6 5 6 7 7 8 8 8 8 7 7 7
12 11 10 9 9 8 7 7 6 5 5 4 4 4 3 3 3 2 3 4 4 5 5 6 6 8 8 9 9 8 8 7 7 7 7 7 8 8 9 11 13 14 16 17 17 18 18 18 18 18 18 18 18 18 18 17 16 14 11 8 6 5 6 6 8 8 7 7 6 6 6 6 7 6 6 6 6 6 6 6 7 8 9 8 8 8 8
10 10 9 8 8 7 6 5 4 4 4 4 4 3 3 3 3 3 5 7 7 8 8 8 8 9 9 8 8 7 6 6 6 6 7 7 8 9 11 13 16 17 19 21 22 22 22 22 21 20 21 21 20 20 19 18 17 16 13 10 8 9 9 10 10 10 10 9 8 8 8 7 8 7 7 7 7 6 6 7 8 10 10 9 9 9 9
9 8 8 7 7 6 5 5 4 4 4 3 4 3 3 4 5 6 8 9 10 10 10 9 8 8 7 6 5 5 5 5 6 6 7 8 9 11 13 15 18 20 23 24 24 24 25 25 24 23 23 23 23 22 20 19 18 16 14 12 12 13 13 13 13 12 10 10 9 9 9 9 10 10 10 10 9 8 8 7 9 12 13 13 12 12 13
8 7 7 6 5 5 4 4 4 4 4 4 4 4 5 6 8 9 10 10 10 10 8 7 6 5 5 5 5 5 5 6 6 7 8 10 12 14 16 18 21 24 26 26 26 27 28 27 26 26 26 25 24 23 21 20 18 17 15 15 15 16 16 16 16 13 10 10 9 8 9 12 15 15 14 13 12 11 10 10 11 15 16 15 15 15 17
7 6 6 5 4 4 4 4 4 4 5 6 7 7 9 10 10 10 10 9 8 7 6 5 5 4 5 5 5 6 6 7 8 9 10 13 15 17 20 22 25 27 27 28 29 30 30 29 29 29 28 27 25 23 22 20 18 17 17 17 18 18 18 17 15 13 11 11 10 10 9 13 20 23 20 19 18 18 17 14 14 19 21 19 19 19 18
6 5 5 4 4 5 4 5 5 5 7 8 9 9 10 10 10 8 7 6 5 5 5 4 4 4 5 5 6 7 8 10 11 12 14 16 19 22 24 27 28 29 29 30 31 32 31 32 31 31 30 28 26 24 21 20 19 18 18 19 20 20 19 17 14 13 14 13 13 14 13 16 25 29 26 27 29 31 28 19 16 24 30 28 26 24 21
5 5 5 5 5 6 5 6 6 7 8 8 8 9 9 8 7 6 5 5 4 4 4 4 5 5 6 7 9 10 11 13 14 16 18 21 24 27 29 30 31 30 31 32 34 34 33 33 33 32 30 26 22 19 17 18 19 19 20 21 21 21 21 20 16 15 18 19 18 19 18 21 30 35 34 36 38 41 42 32 22 27 37 37 34 31 29
5 6 6 6 7 7 7 7 7 8 8 8 7 7 6 5 5 5 4 4 4 4 4 5 6 7 8 10 12 13 15 17 19 22 24 27 30 32 32 32 31 32 33 35 36 36 36 36 35 32 28 22 16 14 15 18 20 21 22 22 23 24 24 23 22 22 24 25 25 26 26 28 34 38 39 41 43 45 49 45 37 39 44 45 43 41 37
7 7 8 8 8 8 8 9 9 8 8 7 6 6 5 5 4 4 4 4 4 4 5 6 8 11 12 14 16 18 21 24 27 29 31 33 34 34 33 32 32 33 35 36 38 39 38 37 36 33 29 23 17 14 15 18 20 22 23 23 23 25 26 27 27 26 27 30 32 33 33 33 37 40 41 44 46 48 52 54 52 53 55 56 55 51 45
9 9 9 9 9 10 10 10 10 9 7 6 5 5 5 4 4 4 4 4 5 6 8 11 14 16 19 22 25 27 30 32 34 35 36 37 36 34 33 32 33 35 37 38 40 40 39 37 33 29 25 21 18 15 15 18 22 24 25 24 24 27 29 29 28 28 30 34 36 35 35 37 40 43 44 46 48 52 58 63 63 61 61 61 56 50 45
10 10 10 10 10 10 11 10 9 8 6 5 5 5 4 4 4 5 5 6 9 13 16 19 22 25 28 31 33 35 36 37 37 37 38 38 36 33 32 33 35 37 38 39 39 38 38 36 29 23 19 16 16 15 16 20 25 27 30 30 29 31 33 31 29 31 34 37 38 35 35 40 43 46 48 52 56 62 68 69 64 59 57 53 46 42 40
11 10 11 11 11 10 10 9 8 7 6 5 5 4 4 5 5 5 8 12 17 21 25 28 31 34 35 36 38 38 38 37 37 38 38 37 34 32 33 36 38 38 38 39 39 37 34 31 26 20 16 15 15 16 18 22 28 33 36 35 34 37 38 34 33 35 36 38 39 36 39 46 50 54 58 62 66 70 69 62 56 51 48 44 37 34 33
10 11 10 10 10 10 9 8 7 6 5 5 4 4 4 5 6 10 15 20 23 27 30 32 34 36 37 37 38 37 36 36 37 37 36 34 32 33 35 36 36 36 37 36 35 34 29 27 24 20 18 18 17 19 23 24 28 36 41 40 40 43 44 41 38 38 39 39 40 44 52 59 61 65 69 67 66 64 58 50 45 42 38 34 30 29 29
10 10 10 10 10 9 8 7 6 5 5 5 4 5 5 7 12 17 20 22 24 27 29 29 30 32 33 33 34 33 34 35 36 35 34 34 34 33 34 35 33 35 35 32 31 31 27 26 26 23 23 24 22 24 29 27 28 36 41 41 44 46 49 47 41 41 44 44 46 55 61 60 60 64 64 58 52 49 44 39 35 32 29 27 25 25 27
9 10 10 9 9 7 6 6 5 5 5 4 4 5 7 12 17 18 18 18 19 19 21 22 25 26 27 29 31 32 33 34 34 34 35 36 36 34 33 35 35 34 33 30 30 32 31 31 30 26 26 28 26 26 31 32 34 38 40 43 49 50 50 48 41 42 46 44 48 55 52 46 49 52 49 43 40 37 33 29 27 25 24 25 26 27 29
9 10 9 8 7 6 5 5 5 5 5 5 5 8 13 17 17 13 12 12 12 12 13 17 20 21 22 26 28 30 31 32 33 35 36 38 38 35 33 34 32 30 30 29 31 34 34 35 34 29 28 31 28 27 32 36 38 39 38 43 49 47 46 46 44 44 43 39 42 47 41 38 43 44 39 36 33 29 26 25 26 27 27 28 29 32 36
9 9 8 7 6 6 6 6 6 6 6 7 11 16 18 16 11 9 9 8 8 10 12 13 15 16 18 21 24 26 29 31 33 36 37 37 36 34 32 30 26 24 26 28 30 34 35 36 35 31 29 31 29 30 36 39 39 39 39 42 44 43 43 46 45 43 42 40 41 41 38 38 41 37 31 29 27 25 26 26 26 27 28 30 34 41 52
8 7 7 6 6 7 7 8 9 11 13 16 21 23 20 14 10 9 8 7 8 10 11 10 10 10 11 14 17 20 25 28 31 35 35 33 32 31 28 24 20 21 25 28 31 34 34 35 37 34 31 31 29 31 38 42 41 42 42 41 42 42 42 44 43 41 43 44 42 39 37 36 35 30 27 27 25 25 25 25 25 27 29 32 38 49 68
7 7 7 7 8 9 10 12 15 18 21 25 27 25 20 15 12 10 9 9 8 8 9 9 7 6 7 9 11 15 20 24 26 28 28 27 27 25 21 20 21 23 26 28 30 33 34 35 38 38 37 35 31 31 37 41 41 41 39 37 39 41 40 41 42 41 41 41 39 36 34 31 28 27 26 25 25 25 25 24 24 24 24 30 40 57 77
8 9 9 9 11 13 17 20 22 23 25 28 27 24 20 16 13 11 11 10 9 9 9 8 7 5 6 7 9 13 17 19 20 22 23 23 22 20 18 20 24 25 26 26 28 31 34 35 38 41 41 38 33 31 35 38 36 35 33 33 35 37 37 38 38 38 38 38 35 33 31 28 27 27 26 26 26 26 24 23 23 28 39 56 74 88 95
10 11 12 13 17 21 26 29 28 26 28 29 26 24 21 16 13 12 12 11 10 9 10 9 7 7 7 9 11 14 16 17 17 19 21 20 19 19 21 23 24 24 24 25 27 31 35 37 38 41 43 40 35 31 32 33 32 31 31 32 34 35 35 36 37 37 37 35 33 31 29 28 28 28 27 27 27 26 27 30 37 53 72 88 98 101 100
12 13 15 18 23 29 33 34 32 30 30 29 27 26 23 18 14 12 12 11 11 11 11 10 8 8 9 11 13 15 16 17 17 18 20 19 19 21 22 23 23 23 25 28 29 31 35 37 38 40 44 42 37 32 30 31 32 31 31 32 33 34 35 36 37 36 34 32 30 29 28 28 28 27 27 27 27 28 33 38 49 69 87 97 102 103 100
13 14 16 20 26 33 37 37 35 33 31 29 29 27 23 19 15 13 13 13 13 12 12 11 9 9 10 11 14 16 17 17 17 18 19 20 21 22 23 24 25 26 28 31 32 32 35 36 35 36 41 41 35 32 31 31 32 32 31 31 32 33 34 35 34 33 31 30 29 28 28 28 27 26 25 24 23 24 27 31 44 63 73 71 70 68 61
14 14 16 20 26 33 38 39 38 35 32 32 32 28 23 19 16 15 15 15 15 14 13 11 10 11 12 12 14 16 17 17 18 19 20 21 22 24 25 27 29 30 30 31 32 32 33 34 33 34 37 36 33 32 32 31 31 31 31 31 32 33 32 32 31 30 29 29 29 29 28 26 25 24 22 20 19 19 21 24 32 39 37 30 28 28 27
13 13 15 19 26 33 38 40 40 37 36 37 36 30 24 19 16 14 15 16 17 17 15 13 12 13 14 15 16 17 18 19 21 23 24 24 23 25 27 29 31 31 30 30 31 31 29 29 30 31 33 33 33 31 31 30 30 31 31 32 32 31 30 30 30 30 30 30 29 28 26 24 22 21 19 18 18 18 19 20 20 21 21 21 23 25 27
12 12 14 18 26 33 38 40 41 40 40 41 38 33 26 21 16 14 15 17 19 19 17 15 15 15 15 16 16 17 20 23 24 26 29 28 25 24 26 27 28 27 27 28 30 30 28 28 29 30 31 32 31 30 30 30 31 32 32 32 31 30 30 30 31 31 30 28 27 26 24 22 21 19 18 18 17 16 17 18 19 21 24 26 28 30 32
11 11 13 18 27 34 38 40 43 44 42 40 38 33 28 23 19 17 17 18 20 20 19 16 16 16 16 16 18 21 24 26 27 26 27 26 24 23 24 25 24 23 23 26 28 27 27 28 28 29 30 30 29 30 31 31 32 33 32 31 31 32 31 32 31 29 27 25 24 23 21 20 18 17 17 16 16 16 18 20 24 30 34 38 43 49 55
11 10 13 21 30 37 40 42 45 45 43 40 37 34 29 25 22 20 19 19 20 21 21 18 16 17 17 18 21 26 29 29 29 28 24 23 24 26 25 24 22 21 21 24 26 26 27 28 27 27 28 29 29 31 33 32 32 32 32 32 33 33 32 32 29 26 24 23 21 20 18 17 16 15 15 15 15 18 24 31 40 49 55 59 67 75 79
11 11 16 26 34 39 42 46 48 46 43 42 40 36 31 27 23 20 19 20 21 22 22 20 18 19 20 21 22 25 27 28 28 27 26 25 26 27 27 23 21 21 22 24 26 26 26 27 27 27 28 29 30 32 33 32 32 33 33 34 34 33 32 30 27 25 23 21 18 18 16 15 15 16 15 16 21 31 42 51 58 65 71 77 86 93 94
14 17 23 31 36 40 46 50 49 46 44 43 41 37 32 28 24 20 19 20 21 23 23 22 22 23 25 27 27 26 26 27 27 26 28 29 28 27 26 24 22 22 23 24 26 25 25 25 26 27 28 30 31 32 33 33 34 34 35 34 33 31 29 27 25 24 21 18 17 16 14 14 15 15 15 23 39 55 64 69 74 79 87 95 102 104 101
20 24 28 33 37 43 50 53 50 47 46 45 42 38 34 29 25 21 20 21 23 24 25 25 26 27 30 35 36 32 29 28 28 29 31 32 29 26 25 24 24 23 23 24 25 25 24 25 26 28 29 31 32 33 34 35 35 36 35 33 31 29 27 25 23 21 19 17 15 14 14 15 16 16 24 42 59 68 74 81 86 90 95 103 106 104 101
25 26 30 34 40 46 53 55 52 49 48 47 43 39 35 31 26 24 23 24 26 27 27 29 30 31 33 37 40 38 34 32 32 33 34 33 29 26 26 27 27 24 23 24 25 25 25 26 28 29 31 32 34 35 35 35 36 35 33 31 29 27 25 23 20 18 17 15 13 13 14 16 18 28 49 68 72 69 72 82 88 89 90 94 96 96 97
25 27 31 36 42 50 56 57 54 51 49 47 44 40 36 32 28 25 26 28 29 29 30 32 35 36 36 36 37 38 39 38 37 35 33 32 30 29 29 29 28 24 23 25 26 26 27 29 30 31 33 34 35 36 36 35 35 33 31 29 27 24 22 20 17 16 14 12 11 12 14 16 28 53 80 90 82 75 78 84 86 86 84 84 87 93 99
24 28 34 39 46 54 58 58 55 52 50 49 46 42 38 35 32 30 29 31 32 32 33 35 39 41 40 38 37 38 41 41 38 34 32 31 31 31 30 29 26 23 24 26 27 28 30 31 31 33 35 36 37 36 35 34 33 31 29 27 24 21 19 16 14 13 12 11 12 13 15 24 49 80 98 96 87 86 91 92 88 84 80 79 85 93 99
24 30 37 44 52 59 60 58 57 56 54 53 51 47 42 39 37 36 34 33 33 33 34 36 40 42 39 37 39 42 42 41 38 34 33 33 33 31 28 26 25 24 26 28 29 31 32 33 33 34 36 36 36 35 34 34 33 30 26 23 20 18 16 13 12 11 11 12 14 16 24 44 74 98 103 95 87 88 96 98 90 80 73 71 76 85 91
25 33 41 49 57 62 62 61 62 62 61 60 57 52 47 43 42 41 40 38 37 37 37 39 43 44 42 41 44 46 43 40 38 36 36 35 34 31 28 25 26 27 28 30 31 33 33 33 34 35 36 36 35 35 34 33 30 26 23 20 18 15 14 12 12 11 12 13 17 22 37 64 89 102 102 95 86 84 92 95 87 76 69 63 62 68 79
30 38 44 52 60 63 63 65 67 67 67 67 62 55 50 49 48 47 46 45 43 42 42 42 44 45 46 46 46 44 41 38 38 39 39 37 35 32 28 27 27 29 30 32 33 33 33 33 34 34 35 35 35 34 33 30 26 23 20 18 15 14 13 12 12 12 13 15 19 29 48 73 93 100 98 92 83 80 86 89 81 72 68 63 57 58 68
34 40 47 56 63 65 66 69 70 69 70 70 65 57 53 54 54 53 51 49 47 46 46 45 45 47 49 48 44 41 40 39 40 42 42 38 33 31 29 28 29 31 33 34 34 33 34 34 33 34 35 35 34 33 30 27 23 20 18 15 14 13 12 12 12 14 15 18 24 37 55 76 93 99 95 86 77 76 81 83 78 71 68 66 61 59 63
38 43 50 60 68 70 71 72 72 71 71 70 65 59 57 58 59 57 54 51 49 48 48 47 48 50 49 46 42 41 41 41 42 43 42 37 33 31 30 30 32 35 36 36 35 35 35 34 34 34 35 34 32 30 27 24 21 18 16 14 13 12 12 13 14 15 17 21 28 42 59 76 90 97 92 80 70 68 72 76 74 72 71 71 69 65 65
40 45 54 66 74 76 74 73 73 73 73 71 65 60 59 61 61 59 56 54 51 49 49 50 51 50 47 44 43 43 43 43 43 43 41 38 34 32 31 31 34 37 38 38 37 35 35 35 35 35 34 33 31 29 25 21 18 16 14 13 12 12 13 14 15 16 19 23 32 46 62 76 86 91 85 73 63 60 64 68 68 68 71 76 77 75 73
42 49 61 73 79 78 75 73 73 74 74 71 66 62 62 64 64 60 57 55 52 51 51 52 51 48 45 44 44 44 44 44 42 41 39 37 34 33 33 34 36 37 38 38 36 35 35 36 36 34 33 31 29 26 22 19 16 14 13 12 12 13 14 15 16 18 21 26 36 50 64 74 82 83 77 67 58 55 57 62 63 63 68 76 81 81 80
45 56 70 80 82 78 74 73 73 74 75 72 67 64 65 67 65 61 58 56 54 53 53 51 48 45 45 46 46 45 45 43 40 39 38 36 35 35 36 37 38 37 37 36 35 35 36 37 35 33 31 30 27 23 19 17 15 13 12 12 12 13 14 16 18 20 24 31 42 55 65 73 78 77 71 63 55 50 52 58 60 60 64 73 80 82 81
50 64 78 84 82 77 74 73 73 75 75 72 67 65 68 69 66 62 59 58 57 56 53 50 47 47 48 48 48 46 44 41 38 37 36 36 38 39 39 38 39 38 36 35 35 35 36 36 34 32 31 28 24 20 17 15 13 12 11 11 11 13 16 17 19 22 27 36 48 58 65 72 76 75 70 63 55 48 48 55 60 60 64 73 81 83 83
59 73 84 85 80 76 74 74 75 77 76 71 67 68 71 71 67 63 61 60 59 56 53 50 49 50 51 50 49 46 42 38 36 36 36 38 41 42 40 39 38 37 35 35 36 37 36 34 32 31 30 26 21 18 16 14 12 11 10 10 11 13 16 18 21 25 31 40 50 58 65 69 73 74 71 64 54 47 47 53 60 63 67 74 80 83 84
73 83 86 83 79 77 77 77 78 79 76 71 69 72 74 71 67 64 63 60 57 55 53 53 53 54 54 52 49 45 41 38 36 36 38 41 42 41 40 39 37 35 34 36 38 37 34 32 32 31 28 23 19 16 14 12 12 11 9 8 10 13 17 21 25 29 36 43 50 57 63 67 70 73 72 63 51 45 47 53 57 62 67 73 77 80 80
Wind_Speed
6 6 5 5 5 5 5 5 6 6 7 7 8 8 9 10 11 11 12 13 14 15 16 17 18 18 19 20 20 20 20 20 19 19 18 18 18 19 20 22 24 25 26 27 28 29 30 31 33 34 34 35 36 38 39 40 41 43 44 45 46 47 48 49 48 45 43 43 43 42 41 39 40 40 41 42 44 46 48 50 51 50 48 49 52 55 52
5 4 4 4 4 5 5 5 6 7 7 8 8 9 10 11 12 12 14 15 16 17 17 18 19 19 19 19 18 18 17 16 16 16 17 18 19 21 23 24 26 27 28 29 30 31 32 33 34 35 35 36 37 38 39 40 42 43 44 45 45 46 48 49 48 46 45 45 45 44 43 41 41 42 42 43 44 46 47 48 50 50 49 49 52 55 53
4 4 4 4 4 4 5 6 6 7 8 9 9 10 11 12 13 14 15 16 17 18 18 18 18 17 16 16 15 15 15 15 16 17 19 21 23 24 26 27 28 29 30 31 32 33 34 34 35 35 36 37 38 39 40 41 42 43 44 44 44 44 45 46 47 47 46 46 45 44 43 41 40 41 42 43 43 44 45 46 48 50 50 48 50 52 52
4 3 3 4 4 5 6 6 7 8 9 10 11 12 13 14 14 15 16 16 17 17 16 15 15 14 13 14 14 14 15 16 18 21 22 24 25 27 28 29 29 30 31 32 33 34 34 34 35 35 36 37 38 39 40 41 43 43 44 44 42 42 43 43 44 43 42 43 43 42 42 41 40 40 41 42 43 43 44 44 44 46 48 46 46 49 52
3 3 3 4 5 6 6 7 8 9 10 11 12 13 13 14 14 14 15 15 14 14 13 12 12 12 13 14 15 16 18 20 22 24 25 26 27 28 28 29 30 31 32 32 33 34 34 35 35 36 36 37 38 39 41 42 43 44 44 43 42 41 41 41 42 40 38 40 41 40 41 41 41 42 42 43 43 43 42 42 43 45 47 47 45 46 49
3 3 4 4 5 6 7 8 8 9 10 11 12 12 13 14 13 13 13 12 12 11 11 11 12 12 14 16 18 20 21 23 24 25 26 27 27 28 29 30 31 32 32 33 34 34 34 34 35 36 37 37 39 40 41 42 43 44 44 43 42 41 40 40 41 39 37 39 40 39 40 40 41 43 44 43 43 42 42 43 44 45 47 48 47 46 46
3 4 4 5 5 6 7 8 9 10 11 11 11 12 13 13 12 12 12 11 11 11 11 12 13 15 17 19 21 22 23 24 25 26 27 28 28 30 31 31 32 33 34 34 35 35 35 36 36 37 38 39 40 42 43 43 44 45 44 43 42 41 41 41 41 39 37 39 40 39 40 40 41 42 43 43 43 43 44 45 45 46 47 48 49 48 47
3 4 5 6 7 8 9 10 11 11 11 11 11 12 12 12 11 11 11 11 11 12 13 14 16 18 19 21 22 24 24 25 26 27 28 29 30 31 32 33 34 34 35 35 36 36 37 37 38 38 39 41 42 43 44 44 45 45 44 44 42 42 43 43 43 41 39 40 42 42 42 42 42 42 44 44 43 44 46 47 47 48 48 49 50 51 50
3 4 5 6 8 9 10 10 10 10 11 10 11 11 11 11 10 10 11 11 13 14 16 17 18 20 22 23 25 26 27 27 28 29 30 31 32 33 33 34 35 36 36 36 37 38 38 38 39 39 40 41 43 44 44 44 45 45 44 44 43 44 45 45 45 44 42 42 43 44 44 44 44 46 46 45 45 46 47 48 48 49 50 51 52 52 52
4 5 7 8 9 10 10 10 10 11 12 12 11 10 10 10 10 11 11 13 14 16 18 19 21 23 24 26 27 28 29 30 30 31 32 33 34 35 35 36 37 37 37 38 38 38 38 39 39 39 40 42 43 44 44 44 45 45 45 45 45 47 48 47 47 47 45 44 45 45 45 46 47 49 49 48 47 47 48 49 49 50 51 52 54 54 53
5 6 8 9 9 9 9 9 10 12 12 11 9 9 9 9 10 11 13 15 16 18 20 22 24 26 27 29 30 31 32 32 32 33 34 34 35 36 37 37 38 39 39 39 39 38 38 39 39 39 40 41 43 43 44 45 45 46 46 46 47 49 50 49 50 50 49 48 48 47 47 48 50 51 52 51 50 49 49 50 50 51 51 53 54 55 55
5 6 7 7 7 7 8 9 10 11 10 8 7 8 9 10 12 13 16 18 19 21 23 25 27 30 31 33 34 34 34 33 33 34 35 35 36 37 38 38 39 39 39 39 38 38 38 38 38 39 40 41 42 43 44 45 46 46 47 48 49 51 52 52 52 53 53 53 53 52 50 50 52 53 54 54 53 52 52 52 51 51 54 54 55 56 57
4 4 5 5 6 7 8 9 9 8 7 6 7 9 11 13 15 17 19 21 23 26 28 31 33 34 36 36 36 35 34 34 34 35 36 36 37 38 38 39 39 39 39 38 37 37 37 37 38 38 39 40 42 43 44 45 46 47 48 49 51 53 54 54 55 55 55 56 57 57 55 53 53 56 58 58 58 57 58 58 55 54 57 59 59 59 60
2 2 3 5 6 7 7 7 6 6 7 8 10 12 14 16 19 21 23 26 29 32 34 36 37 37 38 37 36 35 34 34 35 36 36 37 38 38 39 39 39 38 38 37 37 36 36 37 37 38 39 41 42 43 44 45 46 48 49 50 52 54 56 57 57 58 58 59 59 59 59 57 56 58 60 61 61 62 63 65 63 60 62 64 64 65 65
0 1 3 4 5 6 6 6 6 7 9 11 14 16 18 20 22 25 27 30 34 36 38 39 39 38 37 36 35 35 35 35 36 36 37 37 37 38 38 38 38 37 36 36 36 36 37 38 39 40 42 43 43 44 45 46 47 48 50 52 53 54 56 58 59 60 60 61 62 62 63 61 57 56 59 61 63 65 66 69 69 68 68 70 70 71 71
1 2 3 4 5 6 6 7 9 11 13 15 17 19 20 23 26 29 32 34 37 38 39 38 37 36 36 35 35 35 36 36 36 36 37 37 38 38 38 37 37 36 35 35 35 36 37 38 40 42 43 45 46 46 46 47 48 49 51 53 54 55 56 58 60 62 62 62 63 63 65 62 57 55 58 62 65 68 69 71 73 72 73 75 75 76 77
1 2 4 5 6 7 8 10 12 14 16 18 20 21 24 27 30 33 35 37 38 38 37 36 36 35 35 35 35 35 36 36 36 37 37 38 38 38 38 37 35 35 34 35 35 36 38 40 41 43 44 46 47 48 48 49 50 51 53 54 55 56 57 59 61 63 63 63 63 64 65 63 58 57 61 65 68 71 72 73 75 75 76 77 78 80 82
2 4 5 6 7 9 11 13 15 16 18 20 23 25 28 31 34 36 37 37 37 36 36 35 35 34 34 35 35 36 36 37 38 38 38 38 38 38 37 36 35 35 35 36 37 38 40 42 43 45 46 47 48 49 50 51 52 53 54 55 57 57 58 60 62 63 64 64 65 66 67 64 61 63 66 69 71 72 73 75 78 79 79 81 82 83 85
3 5 6 8 10 12 13 15 17 19 21 24 26 30 32 34 36 37 37 36 36 35 35 34 34 34 35 36 36 37 38 38 39 39 38 38 39 38 37 36 36 36 37 38 39 40 42 44 46 47 49 49 50 51 51 52 53 53 54 56 57 58 59 62 63 64 65 65 67 69 68 66 65 68 69 71 73 75 76 79 81 81 82 84 86 86 87
5 7 8 10 12 14 16 18 20 22 24 27 30 33 35 36 36 36 36 35 35 34 34 34 34 35 36 37 37 38 38 39 39 38 39 40 40 39 37 36 37 38 38 40 41 42 43 46 48 49 50 51 52 52 53 53 53 53 54 56 56 56 58 62 64 66 66 67 68 69 67 67 69 71 72 74 76 78 80 82 83 84 86 87 88 89 90
7 9 10 12 14 16 18 20 22 25 27 30 32 34 36 36 35 35 34 34 33 34 34 35 36 36 37 38 38 38 38 38 38 39 40 41 40 39 38 38 39 40 41 42 43 44 46 48 49 51 51 52 54 55 55 56 55 53 54 56 56 55 57 61 65 66 67 68 69 67 66 68 70 72 74 76 79 81 84 86 87 88 90 91 92 93 94
9 11 13 15 17 18 20 22 25 27 30 32 34 36 36 35 34 34 33 33 33 33 35 36 37 37 38 38 38 38 38 39 40 41 42 42 41 40 39 40 41 41 43 44 45 47 49 50 51 53 53 54 56 57 57 58 58 56 56 56 56 56 59 63 66 67 67 68 67 66 68 71 72 75 78 80 83 85 87 88 90 92 93 94 96 96 96
11 13 15 17 19 21 23 26 28 30 32 34 35 35 34 34 34 34 33 33 33 35 36 37 38 38 38 38 38 39 39 40 42 43 43 43 42 41 40 41 42 43 44 46 48 49 51 52 53 55 55 56 58 59 58 59 59 59 60 58 58 60 63 66 68 68 68 69 68 69 73 74 75 79 82 84 86 88 89 91 93 95 96 97 97 97 96
12 14 16 19 21 24 27 29 31 33 34 35 35 34 34 35 35 34 33 33 34 36 37 38 38 38 39 39 39 39 40 42 43 44 44 44 43 42 42 42 43 45 47 49 50 52 53 54 55 56 57 57 59 60 60 60 61 62 63 62 62 64 66 67 69 71 72 73 73 75 77 78 79 83 86 87 89 90 92 94 95 97 98 98 96 95 93
14 16 19 22 24 27 29 31 33 34 34 34 33 34 35 36 35 34 34 34 35 37 38 39 39 40 40 40 41 41 42 43 45 45 45 45 44 44 44 44 45 47 49 51 52 53 54 55 56 58 58 58 60 61 60 61 63 64 65 65 66 68 69 69 72 74 75 77 78 80 81 81 84 87 89 91 93 95 97 98 99 99 99 97 96 94 91
17 19 22 24 27 29 31 32 33 33 33 33 33 34 35 36 35 34 34 35 36 37 38 39 40 40 41 41 42 43 44 45 46 47 46 46 45 45 45 46 47 49 51 53 54 54 56 57 57 58 59 59 61 62 62 63 65 66 68 69 70 71 73 74 76 77 78 80 83 85 86 86 86 88 91 94 97 100 101 102 102 101 100 98 96 93 90
19 21 24 26 28 30 31 33 33 33 33 33 34 35 36 36 35 35 34 35 36 37 38 39 39 39 40 41 42 44 45 46 46 47 46 46 45 45 46 48 50 51 53 54 55 56 57 57 58 58 59 60 63 64 64 64 66 68 71 72 73 75 77 79 80 82 83 85 88 90 92 93 93 95 98 100 102 103 104 105 104 102 99 96 94 92 91
20 23 25 27 29 30 32 33 34 34 34 34 35 36 36 36 35 35 35 35 36 37 38 39 39 40 41 42 43 44 45 45 46 45 45 45 45 46 48 49 51 53 54 55 56 57 57 58 58 59 60 62 64 66 66 67 69 71 74 76 77 79 81 82 84 86 88 90 92 93 96 98 100 102 104 105 105 105 105 104 101 98 95 93 92 93 92
21 24 25 27 29 32 33 34 35 35 35 35 36 37 37 36 36 35 35 35 36 37 38 39 39 40 41 42 44 44 45 44 44 44 44 45 46 47 49 51 52 54 55 56 57 57 57 58 59 60 61 63 66 67 68 69 71 74 76 78 80 82 83 85 87 89 91 93 94 96 98 101 104 105 106 106 106 104 103 101 99 96 95 94 93 93 93
22 24 26 28 30 33 35 36 36 36 36 37 37 38 38 37 36 36 35 35 36 37 38 39 40 41 42 43 44 44 44 43 43 44 44 46 47 48 50 51 53 54 55 56 57 58 58 59 61 62 62 64 68 69 70 72 73 76 77 79 80 82 84 86 88 91 93 95 97 99 102 104 106 107 107 107 106 105 103 102 100 97 97 97 97 96 96
22 24 26 29 32 34 36 37 38 37 37 38 39 39 39 39 38 37 37 36 37 38 39 39 40 42 43 43 43 43 43 43 43 44 45 46 48 50 51 52 53 55 56 57 57 58 59 61 63 63 64 66 69 71 72 74 76 77 78 79 81 83 85 86 89 91 94 97 100 102 104 106 107 108 109 108 108 106 104 103 100 99 98 98 96 94 92
23 25 28 30 33 36 38 39 39 39 39 39 40 40 40 40 40 39 38 38 39 39 40 41 42 43 43 43 43 43 43 43 43 44 45 47 49 51 52 53 54 56 57 58 58 59 61 62 64 64 66 68 71 73 74 76 77 79 80 82 83 85 86 88 90 92 95 99 103 105 107 107 108 108 108 108 107 104 102 100 98 96 94 92 89 86 83
25 27 29 32 35 38 40 40 40 40 40 40 41 41 42 42 41 41 41 40 40 41 41 42 43 44 44 44 43 43 43 43 43 44 46 48 50 51 53 54 55 57 58 58 59 61 63 64 65 66 67 70 73 75 76 78 79 81 83 85 86 88 89 91 93 96 99 102 104 106 107 108 107 106 105 104 102 99 96 94 91 89 87 85 83 80 77
26 28 31 34 37 40 41 41 41 41 41 41 42 42 42 43 43 42 42 42 42 42 43 43 44 44 45 44 44 44 43 44 44 45 46 49 51 53 54 55 56 58 59 59 60 63 64 65 67 68 70 72 74 76 77 79 81 83 85 87 89 91 92 94 96 99 101 103 105 106 107 106 105 103 102 100 97 93 89 86 84 82 80 77 74 71 69
28 30 32 36 39 41 42 43 43 43 43 42 42 43 43 43 43 43 43 43 43 43 44 44 45 45 45 45 44 44 44 45 46 47 49 51 53 55 56 57 57 59 61 61 62 65 66 67 69 71 72 74 75 77 79 81 83 85 87 89 91 94 96 99 101 102 104 105 106 106 106 105 103 101 98 95 90 85 82 79 76 74 72 69 67 66 65
30 32 34 38 41 43 44 45 45 44 44 43 43 43 44 44 44 44 44 44 44 44 45 45 46 46 46 45 45 45 46 46 48 49 51 53 55 56 57 58 59 61 63 63 65 67 68 69 71 73 74 76 77 79 81 83 85 87 89 91 94 97 100 102 104 105 106 106 106 105 103 101 99 95 91 87 82 78 76 75 72 70 69 67 66 65 64
32 34 36 40 43 45 46 46 46 45 45 45 44 44 44 44 45 45 45 45 45 45 45 45 46 46 46 46 46 47 48 49 50 51 53 55 57 57 58 60 61 63 65 65 67 69 70 71 73 74 75 77 79 80 82 85 87 89 91 93 96 99 101 103 105 107 107 107 105 103 100 96 92 87 83 79 76 73 73 72 71 70 69 67 66 64 62
33 36 38 41 44 46 47 47 47 46 46 46 45 45 45 45 45 46 46 46 45 45 45 45 45 46 46 46 47 48 49 50 52 53 55 56 58 59 60 62 64 66 67 68 70 71 72 73 75 76 77 78 80 82 84 86 88 91 93 95 98 100 102 104 105 106 106 105 103 100 95 90 84 79 75 73 71 71 71 71 69 68 66 64 62 60 59
36 38 40 43 46 47 47 47 47 47 46 46 46 46 46 46 46 46 46 45 45 45 45 45 45 46 46 46 47 49 51 52 53 55 56 58 59 61 62 64 66 68 70 71 72 74 75 76 76 78 79 81 82 84 86 88 90 92 94 96 98 100 101 103 103 103 102 101 98 93 86 79 74 70 69 68 68 69 70 70 68 65 62 59 57 57 57
38 39 41 44 47 48 48 47 47 47 47 47 47 47 47 46 46 46 46 45 45 45 45 45 45 46 47 48 48 50 52 53 55 56 57 58 60 62 64 66 68 71 72 73 74 76 77 78 78 80 82 83 85 86 88 90 92 94 95 97 98 100 100 101 102 101 99 96 91 83 75 69 65 64 64 65 67 70 71 70 67 62 59 57 55 56 57
39 41 43 46 48 48 48 48 48 48 48 48 48 48 47 47 46 46 45 45 45 45 45 46 46 46 48 49 50 51 53 54 56 57 58 59 61 63 65 68 71 73 74 74 76 77 78 79 81 82 84 85 87 88 90 92 93 95 96 98 99 100 101 102 102 100 96 90 83 75 68 63 61 60 62 64 67 70 71 69 65 60 58 56 56 55 57
41 42 44 48 49 48 48 48 49 48 48 49 49 49 48 47 46 46 46 46 46 46 46 46 47 47 49 50 51 53 54 55 56 57 59 60 62 64 67 69 72 74 74 75 77 78 79 81 83 85 86 87 89 90 92 94 95 96 98 99 100 102 103 103 102 98 91 83 74 67 62 59 59 60 63 66 68 69 68 65 61 59 58 57 56 55 55
41 43 46 49 49 49 48 49 49 49 49 50 50 50 49 48 47 47 46 46 46 46 47 47 48 48 50 51 52 54 55 56 57 59 60 62 64 67 69 71 73 74 75 76 77 79 81 83 85 86 87 89 90 92 94 95 96 98 100 102 103 103 103 102 98 92 84 75 67 61 58 57 58 61 64 66 68 68 65 61 57 57 58 59 57 56 55
42 44 48 50 50 49 50 50 50 50 50 51 51 51 50 49 48 47 46 46 46 46 47 48 48 49 50 52 53 54 55 57 58 60 62 63 66 69 72 73 74 75 76 77 78 80 82 84 85 87 88 90 92 93 95 96 97 100 104 105 104 103 101 98 93 86 78 70 62 58 56 57 59 63 66 68 68 68 65 60 57 57 59 60 59 58 56
43 46 49 51 50 50 51 51 51 51 51 52 52 52 50 49 48 47 46 46 46 47 48 49 49 50 52 53 54 55 56 58 60 61 63 65 68 70 72 74 75 76 77 78 80 82 84 85 87 88 90 92 94 95 96 97 99 103 106 106 104 101 98 93 87 80 73 66 60 57 56 58 61 65 68 69 68 67 64 61 58 58 60 61 61 60 58
45 48 51 51 51 51 52 52 52 52 52 53 53 52 50 49 48 47 46 47 47 48 48 49 50 51 52 54 55 56 58 60 61 62 65 67 69 71 73 75 76 77 79 81 83 84 86 87 89 90 92 94 96 97 98 99 102 105 106 105 102 99 94 88 81 75 69 63 58 56 56 58 62 66 69 70 68 66 64 61 59 58 60 61 62 61 60
47 50 52 52 52 52 53 53 53 53 53 53 53 52 50 49 48 47 47 47 48 48 49 50 51 52 53 54 55 57 59 61 62 64 66 69 70 72 74 75 76 78 80 83 85 86 87 89 91 93 95 97 99 99 100 101 103 105 105 102 99 96 90 83 77 72 66 60 56 55 56 59 63 67 70 70 68 66 64 61 59 58 59 60 61 61 60
49 52 53 53 53 53 54 54 54 54 54 54 53 51 50 49 48 47 47 48 48 48 49 50 52 53 53 54 56 58 60 62 64 65 68 70 72 73 75 76 77 78 80 83 86 87 89 91 93 95 97 99 100 101 101 102 104 105 104 101 97 92 86 79 74 69 64 58 55 55 57 60 64 67 70 69 67 65 62 61 59 58 58 59 60 60 59
51 53 53 53 53 54 55 55 55 55 54 54 52 51 50 49 48 48 48 48 48 48 50 51 52 53 54 55 57 59 61 63 65 68 70 71 73 74 76 77 79 80 81 83 86 88 90 93 95 97 99 100 101 101 101 102 104 104 102 99 94 88 81 76 72 67 61 55 53 55 57 61 65 68 69 68 66 64 61 60 59 58 58 58 59 59 59
53 54 54 53 54 55 55 55 55 55 55 54 52 51 49 48 48 48 47 47 48 49 50 52 53 54 55 57 58 60 62 65 67 69 71 72 73 75 77 78 80 82 83 84 87 89 92 95 98 99 100 101 101 101 102 103 104 103 101 96 90 83 77 72 69 63 56 52 52 54 58 61 65 68 69 67 65 63 60 58 58 58 57 57 57 58 58
54 54 53 53 54 55 55 56 56 56 55 53 52 50 49 48 48 47 47 47 48 49 51 52 54 55 56 58 59 61 64 66 68 70 71 72 74 76 78 79 81 83 84 86 88 90 93 96 99 101 101 101 101 101 103 103 103 101 98 93 85 78 73 69 64 58 53 50 51 54 58 62 66 68 68 66 64 61 59 57 57 57 57 56 57 57 58
54 54 53 54 55 55 56 56 56 55 54 53 51 50 49 48 47 47 47 48 49 50 51 53 54 56 57 59 61 63 66 67 69 70 71 72 74 77 79 80 82 83 86 88 90 93 95 98 100 101 101 101 101 102 103 103 101 99 96 89 81 75 70 66 60 55 52 51 52 55 60 63 66 67 66 64 61 59 57 56 56 56 56 56 56 56 57
Wind_Direction
110 102 94 85 75 66 60 52 43 36 31 25 21 15 4 359 0 357 352 349 347 344 341 339 337 334 332 332 331 331 333 337 341 346 350 353 355 355 354 351 349 348 345 343 342 340 338 337 336 335 334 335 335 336 337 338 339 340 341 342 343 342 343 343 343 341 339 338 337 335 336 338 338 336 332 328 325 322 321 320 320 320 321 320 316 316 323
104 95 89 82 71 61 53 43 34 27 19 13 9 5 0 356 354 349 346 344 341 338 337 335 334 333 334 335 338 342 347 352 357 359 360 358 354 351 349 346 344 342 340 339 337 335 334 333 332 332 332 333 334 335 337 338 339 341 342 343 344 344 345 346 346 344 343 343 343 340 340 340 340 339 335 330 327 323 322 322 320 321 323 322 320 320 325
98 92 84 73 61 47 34 26 20 14 9 5 1 359 356 351 348 344 342 340 337 336 337 337 339 341 344 349 355 0 3 3 2 359 356 353 348 345 343 341 340 338 336 335 333 331 331 329 329 330 331 332 333 335 337 338 340 342 343 344 345 345 347 349 348 348 348 348 346 343 341 341 341 339 335 331 329 327 326 325 323 322 322 323 324 323 324
96 84 67 52 37 29 23 17 12 8 4 1 357 353 350 346 343 342 340 339 341 343 345 347 350 355 1 6 8 6 4 360 355 351 349 346 344 342 341 339 338 335 333 332 330 329 328 328 328 330 330 331 333 335 337 338 340 342 343 344 344 344 347 349 348 348 348 346 345 342 340 341 341 338 335 333 333 333 331 328 323 321 321 324 326 322 321
81 59 45 36 28 24 16 10 8 4 359 356 352 348 345 345 346 346 346 349 353 355 356 1 4 7 10 11 5 359 355 352 349 347 344 343 342 341 340 338 336 334 333 331 329 328 328 327 328 329 330 332 334 336 338 340 341 342 343 343 343 342 344 346 347 346 343 342 342 341 340 341 340 338 337 338 339 340 337 331 327 324 325 328 329 325 325
49 40 31 25 23 18 12 8 0 353 352 350 346 345 350 353 355 356 357 1 6 6 7 11 10 7 6 4 357 351 349 348 346 344 341 341 341 339 338 337 336 334 333 332 330 328 327 328 329 330 332 334 335 337 339 341 342 343 343 342 341 340 341 342 344 343 339 336 338 339 337 338 338 337 338 340 340 339 336 334 332 330 329 330 330 330 330
39 28 16 11 8 1 358 352 345 346 349 343 341 351 0 3 3 5 10 14 13 10 10 8 3 1 359 355 351 347 345 344 341 339 339 338 337 336 335 335 335 334 333 332 330 328 328 328 329 332 334 335 337 339 340 341 342 343 342 341 339 338 338 338 340 340 335 331 332 333 333 335 336 335 335 337 338 336 333 332 332 331 331 330 328 329 330
29 15 4 358 352 347 346 344 345 348 341 334 348 6 10 9 10 11 17 20 12 5 3 357 353 354 352 348 345 342 340 338 336 335 335 334 333 334 333 333 334 333 333 332 331 331 330 330 332 333 335 336 338 339 340 341 342 342 341 339 337 336 335 334 335 337 333 329 329 329 329 330 330 330 331 334 335 334 332 330 330 330 330 327 325 325 326
9 357 350 347 344 344 345 347 350 346 341 352 12 14 5 6 10 10 13 14 5 359 356 351 348 348 346 341 339 337 335 334 333 332 332 331 331 332 332 333 333 333 334 334 333 333 333 333 334 335 336 337 338 339 340 341 341 340 339 337 335 334 333 332 332 334 334 331 330 329 327 325 325 326 329 330 331 331 329 327 327 328 326 324 322 323 323
347 341 339 339 340 343 345 350 355 358 6 18 19 3 358 6 7 3 3 3 358 352 349 347 345 344 341 338 336 335 334 332 331 330 330 330 330 331 331 332 333 334 335 334 333 334 334 334 335 337 338 338 338 338 339 338 338 337 336 334 333 333 333 332 332 334 335 333 331 331 328 326 326 327 328 328 327 327 325 324 324 326 325 323 321 321 321
333 334 337 338 341 346 352 1 8 13 21 23 11 0 4 6 359 355 354 353 350 346 344 344 343 341 339 338 336 335 334 332 331 330 329 330 330 330 331 332 333 334 334 333 333 334 334 335 336 337 337 337 337 337 337 335 335 334 333 332 332 332 332 333 333 334 335 334 332 332 332 330 330 328 327 326 325 324 323 323 325 326 325 322 321 320 319
328 332 335 339 346 356 5 12 15 18 22 19 10 8 5 356 351 349 349 348 346 343 343 343 341 339 338 337 336 335 333 331 330 329 328 330 330 331 332 332 333 333 333 333 333 333 334 335 335 335 335 335 335 335 334 333 332 332 331 331 331 332 332 332 332 333 334 333 332 333 334 333 332 328 325 325 324 324 323 323 325 325 323 321 320 319 318
320 327 336 347 1 9 13 14 14 15 15 8 2 360 353 349 349 348 348 347 344 343 342 341 339 337 336 335 334 333 331 329 328 328 329 330 331 331 332 333 333 333 332 332 332 332 333 332 332 333 332 333 333 332 331 331 330 330 329 330 330 331 330 330 331 331 332 331 331 331 330 332 331 327 325 326 326 325 324 323 325 326 323 321 321 320 318
298 330 355 7 12 11 8 6 5 2 358 353 352 351 348 347 348 348 347 345 343 342 341 338 337 335 334 333 332 331 330 329 329 329 330 331 332 332 333 332 332 332 332 332 331 331 331 330 330 331 330 331 331 331 331 330 329 328 328 328 329 329 329 329 329 329 329 328 328 327 327 331 334 330 327 327 326 325 324 322 324 325 323 321 321 320 319
208 13 15 12 7 2 359 359 357 353 350 349 349 348 347 347 347 345 344 343 341 339 337 335 335 334 333 333 332 331 330 330 330 331 331 332 332 332 333 332 332 332 331 330 330 329 329 329 330 330 330 331 331 331 330 328 327 327 326 326 328 328 327 327 326 326 327 325 326 326 326 330 334 329 325 324 322 322 322 321 322 324 322 321 321 320 319
104 28 13 3 357 356 355 355 353 351 350 349 348 347 346 345 344 342 341 340 338 336 335 335 335 334 334 333 332 331 331 331 332 331 331 332 332 333 333 331 331 330 329 329 328 328 329 329 330 330 330 330 330 329 328 327 326 326 325 325 327 326 326 325 323 324 325 324 324 325 324 328 331 326 321 321 320 321 321 320 321 323 322 321 320 319 319
53 9 359 353 351 353 352 352 351 350 348 347 346 345 344 343 341 340 339 337 336 336 336 337 337 335 334 333 332 332 332 332 331 331 332 332 333 333 331 330 329 329 328 328 328 328 329 329 329 329 329 329 328 327 327 327 326 326 326 326 326 326 324 323 323 323 322 322 322 322 323 326 327 322 319 319 319 320 321 320 320 321 321 320 319 318 317
9 351 345 345 347 349 349 349 348 346 345 344 343 342 341 340 339 338 337 337 338 339 339 339 337 336 335 334 333 333 332 332 331 331 332 332 332 331 330 329 329 328 328 328 328 329 329 329 329 329 329 329 327 327 327 327 327 327 327 326 326 326 323 322 322 321 321 321 321 321 323 326 324 320 319 319 319 320 319 318 318 320 319 318 317 317 317
345 337 336 340 344 345 345 344 343 342 340 339 338 338 338 337 337 337 337 339 339 340 339 339 337 337 336 335 334 333 332 331 331 331 331 331 331 330 330 329 329 328 328 328 329 329 329 329 329 329 329 328 327 327 327 327 328 328 327 326 327 326 323 322 321 320 320 321 321 323 326 326 322 320 319 319 319 318 317 317 318 319 318 317 316 317 316
329 330 334 338 340 341 340 339 338 336 335 334 335 335 335 335 335 336 338 339 339 339 339 338 338 338 338 337 335 334 333 332 331 332 332 331 331 330 329 329 328 328 328 328 329 328 328 329 329 329 329 328 327 327 327 327 328 328 326 326 327 325 322 320 320 319 321 322 323 326 327 324 321 320 319 319 319 317 317 318 318 318 317 316 316 315 314
326 331 334 336 337 336 335 333 331 330 330 331 332 332 332 333 335 337 338 339 340 340 339 340 341 340 339 338 336 335 334 333 333 333 332 332 331 330 329 328 328 328 328 328 329 328 328 329 329 329 329 328 327 327 327 326 327 328 326 325 326 324 320 318 319 320 322 323 325 326 324 321 320 319 318 318 318 317 317 318 318 317 316 315 315 314 313
330 332 333 333 332 331 328 327 327 327 329 330 330 330 331 333 336 337 339 340 341 341 342 342 342 341 340 339 338 336 335 334 333 333 332 332 331 330 329 328 328 329 330 330 330 329 329 329 329 329 329 328 327 327 327 326 326 327 326 325 324 321 318 317 319 321 322 322 323 322 320 320 321 319 318 318 318 318 317 317 316 316 315 315 314 313 312
328 329 329 329 328 326 326 326 327 327 328 328 329 330 332 334 336 338 340 341 342 342 343 343 343 342 341 340 339 337 335 334 333 333 333 332 331 330 329 328 329 330 331 331 331 330 330 330 329 329 329 328 327 327 327 326 326 325 325 325 322 319 318 319 320 321 321 321 321 319 319 321 321 319 318 318 318 317 317 317 316 315 314 313 313 312 311
322 323 324 324 325 326 327 328 328 328 328 328 329 331 333 335 336 338 339 341 342 343 343 343 344 344 343 342 340 338 336 334 334 333 333 333 332 330 330 330 330 331 331 331 331 330 330 330 329 328 329 328 327 327 327 326 325 325 324 323 321 320 321 321 321 321 321 321 321 320 321 322 320 319 318 318 317 317 316 315 314 313 312 312 311 310 309
316 318 320 322 325 327 328 328 328 329 329 330 331 333 334 335 336 337 338 340 341 342 342 342 343 344 343 342 340 338 336 335 335 334 334 333 332 332 332 331 331 331 331 331 331 330 330 330 329 328 328 327 327 327 327 326 325 325 324 323 322 322 322 322 321 322 322 322 321 320 320 320 319 319 318 317 316 316 315 314 313 312 311 310 309 308 307
313 317 321 324 327 328 328 328 329 330 330 331 332 333 333 333 334 336 337 338 339 340 340 341 341 341 341 340 339 337 336 335 335 334 334 334 333 332 332 332 331 331 331 331 331 330 330 330 329 327 327 327 327 328 327 326 325 324 323 323 323 323 323 323 322 323 322 321 320 319 319 318 317 317 316 316 315 314 313 312 311 310 309 309 308 306 305
316 321 324 327 328 329 329 329 329 330 330 330 330 330 331 332 334 335 335 336 336 338 338 339 339 339 337 337 336 335 334 334 334 334 334 334 333 332 332 331 331 331 331 330 331 330 330 330 328 326 326 326 327 327 327 325 324 323 323 323 324 323 323 323 323 322 322 321 321 320 320 320 319 318 317 316 315 314 313 312 311 311 310 309 307 306 305
320 324 327 329 332 333 333 331 330 329 329 328 328 329 330 332 333 333 334 333 334 335 336 336 336 336 334 333 333 332 333 333 333 333 334 333 332 332 331 331 331 330 330 330 330 330 330 329 327 326 326 326 326 326 326 325 324 324 324 324 325 324 324 324 323 323 322 322 322 322 321 321 320 319 317 316 315 314 313 313 312 311 310 309 308 307 307
323 326 330 334 337 336 334 331 329 328 327 327 327 328 330 331 331 332 331 331 331 332 333 334 334 333 331 330 330 330 331 331 332 332 332 331 331 331 330 330 330 330 330 330 330 331 330 328 327 327 327 326 326 326 326 325 324 324 325 325 325 325 324 324 323 323 322 322 322 321 320 319 318 317 316 315 315 314 313 312 311 311 310 309 307 306 303
324 329 334 337 337 335 332 330 328 327 326 326 327 328 329 330 329 329 328 327 328 329 330 330 330 329 328 328 328 328 329 330 330 330 330 330 330 330 330 330 330 330 330 330 330 330 329 328 327 327 327 326 325 325 326 325 325 325 325 325 324 323 323 322 322 322 322 322 321 320 319 318 317 315 315 314 313 312 312 311 311 310 308 307 305 304 302
326 331 334 334 334 332 331 329 327 326 326 326 328 329 329 328 327 326 325 325 326 327 327 327 327 326 325 325 326 326 327 328 328 329 329 329 329 329 330 330 330 330 330 330 330 330 329 327 326 327 326 325 325 325 325 325 325 325 324 323 323 322 322 322 322 322 322 321 319 318 317 316 315 314 313 313 313 312 312 312 311 310 308 308 308 307 307
327 330 330 330 331 330 329 328 327 326 326 327 329 329 328 328 326 325 324 325 325 325 326 325 325 324 324 324 324 324 325 326 327 328 328 327 328 329 330 330 330 330 330 330 329 328 327 326 326 326 326 325 325 324 324 325 325 324 323 323 322 322 322 322 322 322 321 320 319 317 317 316 315 315 314 314 314 314 314 313 312 311 311 311 311 310 310
325 325 325 327 328 328 327 327 326 326 326 327 328 329 328 328 327 326 325 324 324 325 325 324 324 323 322 322 322 323 324 326 326 327 326 326 327 328 329 329 330 329 329 329 328 327 326 326 326 326 326 325 324 324 325 325 325 324 324 323 323 323 323 323 323 322 321 320 319 318 317 317 316 316 315 315 315 314 314 313 313 313 313 313 313 313 312
320 321 323 325 326 326 326 325 325 326 326 327 327 328 329 328 328 327 326 325 324 324 324 323 323 322 321 321 322 323 324 324 324 324 324 324 326 327 328 329 329 328 328 328 327 326 325 326 326 326 325 325 325 325 325 325 325 325 324 324 325 324 324 323 323 322 321 320 319 318 317 317 317 316 316 315 315 315 315 314 315 315 315 316 317 318 318
317 319 321 324 325 325 325 325 325 326 326 326 326 328 329 329 329 328 326 325 324 324 323 322 322 321 321 322 322 323 323 323 323 323 323 324 325 326 327 328 329 328 328 328 326 325 326 326 326 326 326 325 326 326 326 326 325 325 325 326 326 325 324 324 323 322 322 321 320 319 318 318 317 317 316 316 316 316 317 318 319 320 321 322 323 324 325
317 319 321 324 325 325 325 325 325 325 325 325 326 327 328 329 328 327 325 324 323 323 322 322 321 321 321 322 322 322 321 321 322 323 323 324 325 326 327 328 328 328 328 328 326 326 326 327 327 327 327 327 327 327 327 326 326 326 327 327 326 325 325 324 323 322 322 321 320 320 319 318 318 317 317 318 318 319 321 323 324 325 326 326 327 328 328
318 320 323 324 325 325 325 325 324 324 324 325 326 327 328 328 327 326 325 324 323 322 322 321 321 321 321 322 321 321 321 321 322 323 324 324 326 326 327 327 327 328 328 328 327 327 328 328 328 328 328 328 328 327 327 327 327 328 328 327 327 326 325 324 323 322 322 321 321 320 319 319 318 318 319 319 321 323 325 326 327 328 328 328 329 329 330
320 321 322 323 324 325 325 325 325 324 324 325 325 326 327 327 327 326 325 324 323 322 321 321 321 321 322 322 321 321 322 323 324 325 325 325 326 327 327 327 327 329 329 328 328 328 329 329 329 328 328 329 328 328 328 328 329 328 328 328 327 326 325 324 323 322 322 321 321 321 321 320 320 320 320 321 323 326 327 328 329 329 328 328 329 330 331
319 320 321 323 325 325 325 324 325 324 324 325 325 325 326 326 325 325 325 324 323 322 321 322 322 322 322 322 321 321 322 324 325 326 326 325 326 327 328 327 328 329 330 329 329 329 330 330 330 329 329 329 329 329 329 329 329 329 329 328 327 326 325 324 323 322 321 321 322 322 321 320 319 320 320 322 325 327 328 329 330 329 328 328 329 331 333
318 319 320 322 324 324 324 324 324 324 324 325 324 324 324 324 323 324 324 323 322 322 322 322 322 321 321 321 321 322 323 324 326 326 326 326 326 327 328 328 329 330 330 330 330 331 331 331 331 330 330 330 330 330 330 330 330 329 329 328 327 326 324 323 322 322 322 322 323 322 321 319 319 320 322 325 327 328 329 331 331 330 328 329 331 333 333
316 317 319 321 323 324 323 323 324 324 324 324 324 323 323 322 323 323 323 322 322 322 322 322 322 321 321 321 322 323 324 325 326 326 326 326 326 327 328 329 329 330 330 330 331 331 331 331 331 330 330 330 330 331 331 331 330 330 329 328 326 325 324 324 324 324 325 325 325 324 323 321 320 322 325 327 328 329 330 331 331 330 328 329 331 332 332
314 315 318 321 323 323 322 322 323 323 323 323 323 323 322 322 322 323 323 322 323 323 323 322 321 320 321 322 323 324 325 325 325 325 325 326 327 328 329 329 329 330 331 331 331 332 331 331 331 331 331 331 331 331 332 331 331 330 329 328 327 326 326 326 326 327 328 328 327 326 324 323 323 325 327 329 329 329 331 332 331 329 328 329 330 331 331
312 315 319 321 322 321 320 321 321 322 322 323 323 322 322 322 323 323 322 323 323 323 323 322 321 320 322 323 324 325 325 325 325 325 325 326 328 329 329 330 330 330 331 331 331 331 331 331 331 331 331 332 332 332 332 331 330 329 329 329 328 328 327 327 327 328 329 329 328 326 325 324 325 326 328 329 329 330 332 332 331 328 327 328 329 330 330
312 316 319 320 320 319 319 320 320 321 322 323 323 322 322 322 322 322 322 323 323 323 322 321 321 321 323 324 325 325 324 325 325 325 325 327 329 329 330 330 330 330 331 331 331 331 331 332 332 332 332 332 333 333 332 332 331 330 330 330 330 329 328 328 328 329 330 330 328 326 325 324 325 326 328 329 330 332 333 332 331 329 328 328 330 332 332
312 316 318 318 318 318 318 319 320 321 322 322 322 322 322 322 322 322 322 322 322 322 322 322 322 322 324 324 325 325 324 324 325 325 326 328 329 329 330 330 330 330 331 331 331 332 332 332 332 332 333 333 333 333 333 332 331 331 331 331 331 330 329 329 329 330 331 330 328 326 325 325 325 326 327 329 331 332 333 332 331 330 329 330 332 334 333
312 315 317 317 316 316 317 318 319 320 321 321 322 322 322 321 321 321 322 322 322 322 322 322 322 323 324 324 324 325 324 324 325 326 327 328 329 329 330 330 330 331 331 332 332 332 332 332 332 333 334 334 334 334 334 333 332 332 331 331 331 330 329 329 330 331 330 329 327 325 324 324 325 325 327 329 331 333 333 333 332 331 331 331 333 335 335
312 315 315 315 315 316 317 318 319 320 320 321 321 321 321 321 320 321 321 321 322 322 322 322 322 323 324 324 324 324 324 324 325 327 327 327 328 329 330 330 331 331 332 332 332 333 333 332 333 334 335 335 335 335 335 334 333 332 332 331 331 330 330 329 330 331 330 328 326 324 324 324 324 325 327 329 332 333 334 334 334 333 331 331 332 333 334
312 314 315 315 315 316 317 318 319 319 320 320 320 320 320 320 320 320 320 321 322 322 322 322 322 323 323 324 324 324 323 324 326 327 327 327 328 329 329 330 331 332 332 332 332 332 333 333 334 336 336 336 336 335 335 334 333 333 332 332 331 330 329 329 331 331 329 327 325 323 323 323 324 324 326 329 332 334 335 335 334 333 332 331 332 333 334
312 314 314 314 315 316 317 318 318 319 319 319 319 319 319 319 319 319 320 321 321 322 322 321 322 322 323 323 323 323 324 325 327 327 327 327 328 329 329 330 331 332 333 333 332 333 333 334 335 336 337 337 337 336 334 333 333 333 333 332 331 330 329 329 330 330 328 326 324 322 322 322 323 324 327 330 332 334 335 335 334 334 334 333 332 333 333
312 313 313 313 314 315 316 317 317 318 318 318 318 318 318 318 318 318 320 321 321 322 321 321 322 322 323 323 323 323 324 326 327 327 327 327 328 329 329 330 332 332 333 333 333 333 334 336 336 337 338 338 337 335 334 334 334 334 333 333 331 329 328 329 330 329 327 324 322 321 321 322 322 324 328 331 332 334 335 335 334 334 335 334 333 333 333
311 312 312 313 314 315 315 316 317 317 317 317 317 317 317 316 317 318 320 321 321 321 321 321 322 322 322 322 322 323 325 327 327 327 327 328 328 329 329 331 332 332 333 333 333 334 336 337 337 338 339 338 337 335 334 334 334 334 333 333 331 329 329 330 330 328 325 323 322 321 321 322 323 326 329 331 332 334 335 335 334 334 336 336 335 333 333
311 311 311 312 313 314 314 315 316 316 316 316 316 315 315 316 317 318 320 321 321 320 320 321 322 322 322 322 323 324 325 325 326 327 328 328 328 329 330 331 332 332 333 334 334 335 337 337 338 339 339 339 337 335 335 335 334 334 333 333 331 329 329 330 330 328 325 323 321 321 322 324 326 328 330 332 333 334 335 336 336 336 337 338 337 335 335